Regional Weather Roundup
Issued by NWS

Home | Current Version | Previous Version | Text Only | Print | Product List | Glossary Off
Versions: 1 2 3 4 5 6 7 8 9 10 11 12 13 14 15 16 17 18 19 20 21 22 23 24 25 26 27 28 29 30 31 32 33 34 35 36 37 38 39 40 41 42 43 44 45 46 47 48 49 50

000
ASUS43 KDMX 121806
RWRIA

WEATHER ROUNDUP FOR IOWA
NATIONAL WEATHER SERVICE DES MOINES IA
1200 PM CST TUE DEC 12 2017

NOTE: "FAIR" INDICATES FEW OR NO CLOUDS BELOW 12,000 FEET WITH NO
SIGNIFICANT WEATHER AND/OR OBSTRUCTIONS TO VISIBILITY.

* - THESE STATIONS ARE NOT NWS STATIONS...THUS NOT UNDER NWS
QUALITY CONTROL.  THEY ALSO DO NOT REPORT WEATHER SUCH
AS PRECIPITATION OR FOG.

IAZ001>003-012>014-020>022-031>034-043>046-121900-
   NORTHWEST IOWA

CITY           SKY/WX    TMP DP  RH WIND       PRES   REMARKS
CARROLL *      SUNNY     28  18  64 W8        30.19F WCI  20
CHEROKEE *     SUNNY     28  17  62 SW10      30.16F WCI  19
DENISON *      SUNNY     28  18  64 SW8       30.22F WCI  20
LE MARS *      CLOUDY    32  23  69 SW7       30.17F WCI  26
ORANGE CITY *  MOSUNNY   32  27  80 SW10      30.14F WCI  24
SHELDON *      CLOUDY    28  21  74 SW12      30.12F WCI  18
SIOUX CITY     PTSUNNY   32  22  66 S7        30.21F WCI  26
6HR MIN TEMP:  11; 6HR MAX TEMP:  32;

SPENCER        CLOUDY    28  18  66 W12       30.14F WCI  18
6HR MIN TEMP:   8; 6HR MAX TEMP:  28;

STORM LAKE *   SUNNY     28  18  64 SW14      30.14F WCI  17
$$

IAZ055>058-069>071-079>083-090>094-121900-
   SOUTHWEST IOWA

CITY           SKY/WX    TMP DP  RH WIND       PRES   REMARKS
ATLANTIC *     SUNNY     28  16  59 W7        30.24F WCI  21
AUDUBON *      SUNNY     28  18  64 CALM      30.22F
CLARINDA *     SUNNY     30  14  51 N6        30.29F WCI  24
COUNCIL BLFS * SUNNY     30  19  64 SW6       30.24F WCI  24
CRESTON *      SUNNY     28  12  50 NW9       30.25F WCI  20
HARLAN  *      SUNNY     30  16  55 VRB6      30.26F WCI  24
LAMONI         SUNNY     28   7  41 W9        30.24F WCI  19
6HR MIN TEMP:  12; 6HR MAX TEMP:  28;

RED OAK *      SUNNY     30  16  55 W8        30.26F WCI  23
SHENANDOAH *   SUNNY     30  18  59 W7        30.29F WCI  23
$$

IAZ047>049-059>061-072>074-084-121900-
   CENTRAL IOWA

CITY           SKY/WX    TMP DP  RH WIND       PRES   REMARKS
AMES           SUNNY     26   8  46 W12       30.20F WCI  16
6HR MIN TEMP:  11; 6HR MAX TEMP:  26;

ANKENY *       SUNNY     25   9  50 W12       30.23F WCI  14
BOONE *        SUNNY     27  10  50 W9G15     30.18F WCI  17
CHARITON *     SUNNY     27   7  43 NW12      30.22F WCI  16
DES MOINES     PTSUNNY   26   7  44 W9        30.23F WCI  17
6HR MIN TEMP:  14; 6HR MAX TEMP:  26;

GRINNELL*      MOSUNNY   24   4  43 NW9       30.21F WCI  14
KNOXVILLE *    SUNNY     25   3  39 W9G15     30.20F WCI  15
MARSHALLTOWN   SUNNY     24   5  44 W12       30.18F WCI  13
6HR MIN TEMP:   9; 6HR MAX TEMP:  24;

NEWTON *       SUNNY     25   5  42 W13       30.21F WCI  13
PELLA *        SUNNY     26   6  43 W9        30.22F WCI  16
PERRY *          N/A     28  11  49 W10G16    30.21F WCI  18
$$

IAZ004>006-015-016-023>025-035-036-121900-
   NORTH CENTRAL IOWA

CITY           SKY/WX    TMP DP  RH WIND       PRES   REMARKS
ALGONA *       MOSUNNY   27  18  69 SW10      30.14F WCI  17
CLARION *      SUNNY     25  10  54 W10       30.15F WCI  15
ESTHERVILLE    SUNNY     28  21  75 W15       30.11F WCI  16
6HR MIN TEMP:   7; 6HR MAX TEMP:  28;

FORT DODGE *   SUNNY     26  16  65 W9        30.17F WCI  17
MASON CITY     SUNNY     22   7  52 W10       30.16F WCI  11
6HR MIN TEMP:   8; 6HR MAX TEMP:  22;

FOREST CITY *  PTSUNNY   25  14  63 W6        30.14F WCI  18
WEBSTER CITY * SUNNY     27   9  46 W10       30.16F WCI  17
IOWA FALLS *     N/A     24   8  51 W12       30.19F WCI  13
$$

IAZ007>011-017>019-026>030-037>042-050>054-066-121900-
   NORTHEAST IOWA

CITY           SKY/WX    TMP DP  RH WIND       PRES   REMARKS
CEDAR RAPIDS   SUNNY     24   7  48 NW14      30.16F WCI  12
6HR MIN TEMP:  12; 6HR MAX TEMP:  24;

CHARLES CITY * SUNNY     21   7  53 W10       30.15F WCI  10
CLINTON *      SUNNY     23  13  65 W13       30.14F WCI  11
DECORAH *      SUNNY     18   5  57 NW8       30.12F WCI   7
DUBUQUE        SUNNY     18   5  57 NW12      30.12F WCI   5
6HR MIN TEMP:  12; 6HR MAX TEMP:  18;

MONTICELLO *   SUNNY     23   7  50 W14       30.14F WCI  11
OELWEIN *      SUNNY     19   7  58 W13       30.14F WCI   7
WATERLOO       SUNNY     21   3  45 W10       30.17F WCI  10
6HR MIN TEMP:  10; 6HR MAX TEMP:  22;

$$

IAZ064-065-067-068-078-121900-
   EAST CENTRAL IOWA

CITY           SKY/WX    TMP DP  RH WIND       PRES   REMARKS
DAVENPORT      SUNNY     24   8  50 W14       30.18F WCI  12
6HR MIN TEMP:  16; 6HR MAX TEMP:  24;

IOWA CITY      SUNNY     25   6  44 NW13      30.20F WCI  14
6HR MIN TEMP:  16; 6HR MAX TEMP:  25;

MT. PLEASANT * SUNNY     25   6  43 W13       30.20F WCI  14
MUSCATINE *    SUNNY     25   7  46 NW14      30.20F WCI  13
QUAD CITIES    SUNNY     26   9  48 W13       30.16F WCI  15
6HR MIN TEMP:  18; 6HR MAX TEMP:  26;

$$

IAZ062-063-075>077-085>089-095>099-121900-
   SOUTHEAST IOWA

CITY           SKY/WX    TMP DP  RH WIND       PRES   REMARKS
BURLINGTON     SUNNY     27   8  44 W12G18    30.19F WCI  17
6HR MIN TEMP:  17; 6HR MAX TEMP:  27;

FAIRFIELD *    MOSUNNY   25   1  36 NW12G17   30.20F WCI  14
FORT MADISON * SUNNY     27   7  43 NW13      30.20F WCI  16
KEOKUK *       SUNNY     28   5  37 W9        30.21F WCI  20
OSKALOOSA *      N/A     26   4  39 W8        30.21F WCI  17
OTTUMWA        SUNNY     26   4  38 W14       30.21F WCI  14
6HR MIN TEMP:  15; 6HR MAX TEMP:  27;

WASHINGTON *   SUNNY     25   9  50 W14G21    30.21F WCI  13
$$

ABBREVIATIONS USED IN REMARKS
   TC - TEMPERATURES IN CELSIUS
  WCI - WIND CHILL INDEX
   HX - HEAT INDEX
  VSB - VISIBILITY
$$





USA.gov is the U.S. government's official web portal to all federal, state and local government web resources and services.